Simultaneous Nadir Overpasses (SNOs) Predictions

Prediction of SNOs between GOES-16 and AQUA Satellite Orbit:

Table of predicted SNOs for the next 14.0 days since TLE Epoch: 10/22/2022
Index Date Time (GOES-16) GOES-16 Lat,Lon AQUA Lat,Lon Distance(km) Time Diff (sec)
1 10/22/2022 18:34:23 -0.04, -75.20 0.41, -72.98 252.48 80
2 10/23/2022 06:52:49 0.03, -75.20 0.63, -78.10 329.27 80
3 10/25/2022 06:39:57 0.03, -75.21 0.00, -74.96 28.45 80
4 10/27/2022 06:29:46 0.04, -75.23 -0.71, -71.84 386.14 80
5 10/27/2022 18:48:19 -0.03, -75.24 -0.43, -76.98 197.91 80
6 10/29/2022 18:38:07 -0.03, -75.26 0.25, -73.84 160.02 80
7 10/30/2022 06:59:12 0.02, -75.25 0.84, -78.95 421.24 80
8 11/01/2022 06:46:20 0.02, -75.27 0.13, -75.83 62.78 80
9 11/03/2022 06:30:47 0.02, -75.30 -0.53, -72.69 296.73 80
10 11/03/2022 18:52:01 -0.01, -75.31 -0.52, -77.84 286.89 80
